Location: La Fredeussais
(48.1780°N, 1.3980°W)
Time: 17:31:11
(UTC+00:00)

ALOS 2 - Pass Details

Date: 09 May 2021
Orbit: 630 x 632 km, 97.9° (Epoch: 16 June)

Event Time Altitude Azimuth Distance (km) Brightness Sun altitude
Exits shadow 23:36:47 77° 248° (WSW) 655 2.5 -24.0°
Maximum altitude 23:36:50 77° 257° (WSW) 654 2.5 -24.0°
Drops below altitude 10° 23:41:15 10° 344° (NNW) 2,026 6.2 -24.0°
Sets 23:43:28 0° 346° (NNW) 2,938 7.4 -24.1°
